Location: B?jaj?g
(11.7167°N, 92.6667°E)
Time: 00:49:18
(UTC+00:00)

Cosmos 540 Rocket - Pass Details

Date: 18 September 2020
Orbit: 741 x 753 km, 74.1° (Epoch: 30 October)

Event Time Altitude Azimuth Distance (km) Brightness Sun altitude
Exits shadow 21:46:31 17° 169° (S) 1,832 5.5 -28.2°
Maximum altitude 21:50:14 47° 101° (ESE) 988 4.4 -27.3°
Drops below altitude 10° 21:55:08 10° 29° (NNE) 2,263 6.3 -26.1°
Sets 21:57:34 0° 23° (NNE) 3,189 7.1 -25.5°
